sat.trackr.live / text

‹ back to catalog

STARLINK-30204

NORAD 57472 · 2023-107R

PAYLOAD ACTIVE UNKNOWN

§ Identity

Operator
Country
US
Launch date
2023-07-28
Launch site
AFETR
Launch vehicle
Mass (kg)
RCS (m²)

Purposes: comms

External: N2YO · Heavens-Above · Gunter

§ Orbital elements

Epoch: 2026-09-20T10:51:44.799840Z

Period
94.27 min
Inclination
42.9997°
Eccentricity
0.0000963
Mean motion
15.27582641 rev/d
Perigee alt
482.4 km
Apogee alt
483.7 km
Semi-major
6,861.2 km
B*
1.4019e-5
RAAN
316.1774°
Arg perigee
285.7124°
Mean anomaly
74.3622°
Rev number
17,493

§ Raw data

STARLINK-302041 57472U 23107R   26263.45260185  .00000124  00000+0  14019-4 0  99932 57472  42.9997 316.1774 0000963 285.7124  74.3622 15.27582641174932

JSON: /api/v1/satellites/57472 · /tle

For live sub-satellite position, see the globe view (requires WebGL).

§ Visibility from observer

Set your observer location to see the next 7 days of passes ≥ 10°. The values pass through the URL so the page stays shareable.

No JS? Fill the form by hand. The geolocation button needs JavaScript.